Weather History for LHSN - December, 2012

Change the Weather History Date:

Tuesday, December 11, 2012

  Actual Average Record
Temperature  
Mean Temperature 20 °F -  
Max Temperature 26 °F - - ()
Min Temperature 15 °F - - ()
Degree Days  
Heating Degree Days 44    
Moisture  
Dew Point 19 °F    
Average Humidity 83    
Maximum Humidity 93    
Minimum Humidity 74    
Precipitation  
Precipitation 0.00 in - - ()
Sea Level Pressure  
Sea Level Pressure 29.89 in    
Wind  
Wind Speed 5 mph ()    
Max Wind Speed 9 mph    
Max Gust Speed -    
Visibility 3.5 miles    
Events Snow    
T = Trace of Precipitation, MM = Missing Value Source: Averaged Metar Reports

Daily Weather History Graph

Daily Weather History Graph

Search for Another Location

Airport or City:

Trip Planner

Search our weather history database for the weather conditions in past years. The results will help you decide how hot, cold, wet, or windy it might be!

Date:

Astronomy

Dec. 11, 2012 Rise Set
Actual Time 7:15 AM CET 3:49 PM CET
Civil Twilight 6:40 AM CET 4:24 PM CET
Nautical Twilight 6:01 AM CET 5:03 PM CET
Astronomical Twilight 5:24 AM CET 5:40 PM CET
Moon 4:43 AM CET (12/11) 2:16 PM CET (12/11)
Length of Visible Light 9h 44m
Length of Day
8h 33m
Waning Crescent, 5% of the Moon is Illuminated
Dec 11
Waning Crescent
Dec 13
New
Dec 20
First Quarter
Dec 28
Full
Jan 5
Last Quarter

Hourly Weather History & Observations

Time (CET) Temp. Windchill Dew Point Humidity Pressure Visibility Wind Dir Wind Speed Gust Speed Precip Events Conditions
12:15 AM 21.2 °F - 17.6 °F 86% 29.86 in - SE 2.2 mph - N/A   Clear
12:45 AM 21.2 °F 15.0 °F 15.8 °F 80% 29.86 in - SE 4.5 mph - N/A   Clear
1:15 AM 21.2 °F 12.7 °F 15.8 °F 80% 29.86 in - SE 6.7 mph - N/A   Clear
1:45 AM 19.4 °F 12.9 °F 15.8 °F 86% 29.89 in - SE 4.5 mph - N/A   Clear
2:15 AM 17.6 °F 8.4 °F 14.0 °F 86% 29.86 in - East 6.7 mph - N/A   Clear
2:45 AM 17.6 °F 10.8 °F 14.0 °F 86% 29.86 in 5.0 mi East 4.5 mph - N/A   Unknown
3:15 AM 17.6 °F 10.8 °F 14.0 °F 86% 29.86 in 5.0 mi ENE 4.5 mph - N/A   Unknown
3:45 AM 17.6 °F 10.8 °F 14.0 °F 86% 29.86 in 5.0 mi East 4.5 mph - N/A   Unknown
4:15 AM 15.8 °F - 14.0 °F 93% 29.89 in 5.0 mi Variable 2.2 mph - N/A   Unknown
4:45 AM 17.6 °F - 15.8 °F 93% 29.89 in 5.0 mi ESE 2.2 mph - N/A   Unknown
5:15 AM 19.4 °F - 15.8 °F 86% 29.86 in 5.0 mi ESE 2.2 mph - N/A   Unknown
5:45 AM - - - N/A% - 3.1 mi East 2.2 mph - N/A   Mostly Cloudy
6:15 AM 21.2 °F - 17.6 °F 86% 29.86 in - ENE 2.2 mph - N/A   Clear
6:45 AM 21.2 °F - 17.6 °F 86% 29.89 in - NE 2.2 mph - N/A   Clear
7:15 AM 21.2 °F - 17.6 °F 86% 29.89 in 3.7 mi NNE 2.2 mph - N/A   Unknown
7:37 AM 21.2 °F 12.7 °F 17.6 °F 86% 29.89 in 3.1 mi NW 6.7 mph - N/A   Mostly Cloudy
7:45 AM 23.0 °F 17.1 °F 17.6 °F 80% 29.89 in 3.1 mi NNW 4.5 mph - N/A   Mostly Cloudy
8:15 AM 23.0 °F 17.1 °F 19.4 °F 86% 29.89 in 3.1 mi ENE 4.5 mph - N/A   Mostly Cloudy
8:45 AM - - - N/A% - 3.1 mi NNW 6.7 mph - N/A   Unknown
9:15 AM 24.8 °F 19.2 °F 19.4 °F 80% 29.89 in 3.1 mi NNW 4.5 mph - N/A   Mostly Cloudy
9:45 AM 24.8 °F 19.2 °F 19.4 °F 80% 29.89 in 3.1 mi NNW 4.5 mph - N/A   Mostly Cloudy
10:15 AM 24.8 °F 17.1 °F 21.2 °F 86% 29.89 in 3.7 mi North 6.7 mph - N/A   Unknown
10:45 AM 24.8 °F 17.1 °F 21.2 °F 86% 29.89 in 3.7 mi North 6.7 mph - N/A   Unknown
11:15 AM 26.6 °F 19.2 °F 21.2 °F 80% 29.89 in 3.7 mi NNW 6.7 mph - N/A   Unknown
11:45 AM - - - N/A% - 3.1 mi NNW 6.7 mph - N/A   Overcast
12:15 PM 26.6 °F 19.2 °F 21.2 °F 80% 29.89 in 3.7 mi North 6.7 mph - N/A   Unknown
12:45 PM 26.6 °F 19.2 °F 21.2 °F 80% 29.89 in 3.7 mi North 6.7 mph - N/A   Overcast
1:15 PM 26.6 °F 19.2 °F 21.2 °F 80% 29.89 in 3.7 mi NNW 6.7 mph - N/A   Overcast
1:45 PM 26.6 °F 17.7 °F 21.2 °F 80% 29.89 in 3.7 mi NNW 8.9 mph - N/A   Overcast
2:45 PM - - - N/A% - 3.1 mi NNW 6.7 mph - N/A   Overcast
3:15 PM 26.6 °F 19.2 °F 21.2 °F 80% 29.89 in 3.7 mi NNW 6.7 mph - N/A   Overcast
3:25 PM 26.6 °F 17.7 °F 21.2 °F 80% 29.89 in 2.5 mi NNW 8.9 mph - N/A   Overcast
3:45 PM 24.8 °F 17.1 °F 21.2 °F 86% 29.89 in 2.5 mi North 6.7 mph - N/A   Mostly Cloudy
4:15 PM 26.6 °F 19.2 °F 21.2 °F 80% 29.89 in 2.5 mi NNW 6.7 mph - N/A   Overcast
4:45 PM 26.6 °F 21.3 °F 21.2 °F 80% 29.89 in 3.1 mi NNW 4.5 mph - N/A   Overcast
5:15 PM 26.6 °F 19.2 °F 19.4 °F 74% 29.89 in 3.7 mi NNW 6.7 mph - N/A   Overcast
5:45 PM - - - N/A% - 1.9 mi NNW 6.7 mph - N/A   Overcast
6:15 PM 26.6 °F 21.3 °F 19.4 °F 74% 29.92 in 3.7 mi NW 4.5 mph - N/A   Overcast
6:45 PM 26.6 °F 21.3 °F 21.2 °F 80% 29.92 in 3.7 mi NW 4.5 mph - N/A   Overcast
7:15 PM 26.6 °F 19.2 °F 19.4 °F 74% 29.92 in 3.7 mi WNW 6.7 mph - N/A   Overcast
7:45 PM 26.6 °F 19.2 °F 21.2 °F 80% 29.92 in 5.0 mi WNW 6.7 mph - N/A   Overcast
8:15 PM 26.6 °F 19.2 °F 21.2 °F 80% 29.92 in 3.7 mi NW 6.7 mph - N/A   Overcast
8:45 PM - - - N/A% - 1.9 mi NW 6.7 mph - N/A   Overcast
9:15 PM 26.6 °F 21.3 °F 21.2 °F 80% 29.92 in 3.7 mi NW 4.5 mph - N/A   Mostly Cloudy
9:45 PM 26.6 °F 21.3 °F 21.2 °F 80% 29.92 in 3.7 mi NW 4.5 mph - N/A   Overcast
10:15 PM 26.6 °F 19.2 °F 21.2 °F 80% 29.95 in 3.7 mi WNW 6.7 mph - N/A   Unknown
10:45 PM 26.6 °F 19.2 °F 23.0 °F 86% 29.95 in 3.7 mi NW 6.7 mph - N/A   Overcast
10:51 PM 26.6 °F 17.7 °F 23.0 °F 86% 29.95 in 3.1 mi WNW 8.9 mph - N/A Snow Light Snow
11:15 PM 26.6 °F 19.2 °F 23.0 °F 86% 29.95 in 3.1 mi WNW 6.7 mph - N/A Snow Light Snow
11:45 PM - - - N/A% - 0.7 mi North - - N/A   Overcast